Weather History for KCGI - October, 2012

Change the Weather History Date:

Thursday, October 11, 2012

  Actual Average Record
Temperature  
Mean Temperature 48 °F 59 °F  
Max Temperature 62 °F 72 °F 92 °F (1963)
Min Temperature 33 °F 46 °F 29 °F (1964)
Degree Days  
Heating Degree Days 17 7  
Month to date heating degree days 126 65  
Since 1 July heating degree days 172 114  
Cooling Degree Days 0 1  
Month to date cooling degree days 2 18  
Year to date cooling degree days 1766 1440  
Moisture  
Dew Point 40 °F    
Average Humidity 71    
Maximum Humidity 100    
Minimum Humidity 42    
Precipitation  
Precipitation 0.85 in 0.11 in 1.95 in (1969)
Month to date precipitation 1.09 1.27  
Year to date precipitation 22.47 35.60  
Sea Level Pressure  
Sea Level Pressure 30.23 in    
Wind  
Wind Speed 4 mph (South)    
Max Wind Speed 21 mph    
Max Gust Speed 28 mph    
Visibility 10 miles    
Events Rain , Thunderstorm    
T = Trace of Precipitation, MM = Missing Value Source: NWS Daily Summary

Daily Weather History Graph

Daily Weather History Graph

Search for Another Location

Airport or City:

Trip Planner

Search our weather history database for the weather conditions in past years. The results will help you decide how hot, cold, wet, or windy it might be!

Date:

Astronomy

Oct. 11, 2012 Rise Set
Actual Time 7:02 AM CDT 6:26 PM CDT
Civil Twilight 6:36 AM CDT 6:52 PM CDT
Nautical Twilight 6:06 AM CDT 7:22 PM CDT
Astronomical Twilight 5:36 AM CDT 7:52 PM CDT
Moon 2:46 AM CDT (10/11) 3:58 PM CDT (10/11)
Length of Visible Light 12h 15m
Length of Day
11h 23m
Waning Crescent, 18% of the Moon is Illuminated
Oct 11
Waning Crescent
Oct 15
New
Oct 21
First Quarter
Oct 29
Full
Nov 6
Last Quarter

Hourly Weather History & Observations

Time (CDT) Temp. Dew Point Humidity Pressure Visibility Wind Dir Wind Speed Gust Speed Precip Events Conditions
12:53 AM 39.0 °F 35.1 °F 86% 30.26 in 10.0 mi Calm Calm - N/A   Clear
1:53 AM 37.0 °F 34.0 °F 89% 30.26 in 10.0 mi Calm Calm - N/A   Clear
2:53 AM 37.9 °F 35.1 °F 89% 30.25 in 10.0 mi Calm Calm - N/A   Clear
3:53 AM 35.1 °F 34.0 °F 96% 30.26 in 10.0 mi Calm Calm - N/A   Clear
4:53 AM 36.0 °F 34.0 °F 93% 30.27 in 10.0 mi Calm Calm - N/A   Clear
5:53 AM 34.0 °F 33.1 °F 96% 30.27 in 10.0 mi Calm Calm - N/A   Clear
6:53 AM 34.0 °F 32.0 °F 92% 30.28 in 10.0 mi Calm Calm - N/A   Clear
7:53 AM 39.0 °F 36.0 °F 89% 30.28 in 10.0 mi Calm Calm - N/A   Clear
8:53 AM 46.4 °F 39.2 °F 76% 30.27 in 10.0 mi Calm Calm - N/A   Scattered Clouds
9:53 AM 50.0 °F 37.0 °F 61% 30.30 in 10.0 mi SSE 5.8 mph - N/A   Overcast
10:53 AM 54.0 °F 37.0 °F 53% 30.30 in 10.0 mi South 8.1 mph - N/A   Overcast
12:53 PM 57.0 °F 37.9 °F 49% 30.27 in 10.0 mi South 6.9 mph - N/A   Mostly Cloudy
1:53 PM 60.1 °F 39.0 °F 46% 30.25 in 10.0 mi SSW 9.2 mph - N/A   Overcast
2:53 PM 60.8 °F 37.4 °F 42% 30.22 in 10.0 mi South 8.1 mph - N/A   Overcast
3:53 PM 61.0 °F 39.0 °F 44% 30.20 in 10.0 mi South 6.9 mph - N/A   Overcast
4:53 PM 60.8 °F 39.2 °F 45% 30.19 in 10.0 mi South 6.9 mph - N/A   Overcast
5:06 PM 60.8 °F 39.2 °F 45% 30.19 in 10.0 mi South 4.6 mph - N/A   Overcast
5:48 PM 59.0 °F 39.2 °F 48% 30.19 in 10.0 mi South 4.6 mph - N/A   Overcast
5:53 PM 59.0 °F 39.9 °F 49% 30.19 in 10.0 mi South 4.6 mph - N/A   Overcast
6:08 PM 59.0 °F 41.0 °F 51% 30.19 in 10.0 mi South 4.6 mph - N/A   Overcast
6:53 PM 57.9 °F 43.0 °F 58% 30.18 in 10.0 mi SSE 4.6 mph - N/A   Overcast
7:53 PM 57.0 °F 45.0 °F 64% 30.20 in 10.0 mi South 3.5 mph - N/A   Overcast
8:53 PM 57.0 °F 45.0 °F 64% 30.20 in 10.0 mi South 6.9 mph - N/A   Overcast
9:34 PM 57.2 °F 44.6 °F 63% 30.19 in 10.0 mi SSE 4.6 mph - N/A   Overcast
9:53 PM 57.9 °F 45.0 °F 62% 30.20 in 10.0 mi Calm Calm - N/A   Overcast
10:03 PM 57.2 °F 44.6 °F 63% 30.19 in 10.0 mi South 3.5 mph - N/A   Overcast
10:53 PM 57.0 °F 46.0 °F 67% 30.17 in 10.0 mi SSE 5.8 mph - N/A   Overcast
11:26 PM 57.2 °F 46.4 °F 67% 30.17 in 10.0 mi South 5.8 mph - N/A Thunderstorm Overcast
11:53 PM 53.1 °F 48.9 °F 86% 30.20 in 3.0 mi NE 5.8 mph - 0.12 in Rain , Thunderstorm Heavy Thunderstorms and Rain
11:57 PM 53.6 °F 50.0 °F 88% 30.21 in 1.8 mi Calm Calm - N/A Rain , Thunderstorm Heavy Thunderstorms and Rain